SCP
0 1 1 1 1 1 1 1 1 1 1 1 0 0 0 0 0 0 0 0 0 0 0 0 0 0 0 1 0 0 0 0 0 0 0 0 0 0 0 0 0 0 0
0 1 1 1 1 1 1 1 1 1 1 1 1 0 0 0 0 0 0 0 0 0 0 0 0 0 0 1 1 0 0 0 0 0 0 0 0 0 0 0 0 0 0
0 0 1 1 1 1 1 1 1 1 1 1 1 1 0 0 0 0 0 0 0 0 0 0 0 0 0 1 1 1 1 1 1 1 0 0 0 0 0 0 0 0 0
0 0 1 1 1 2 1 1 1 1 1 1 1 1 1 0 0 0 0 0 0 0 0 0 0 1 1 1 1 1 1 1 1 1 1 0 0 0 0 0 0 0 0
0 0 0 1 1 1 1 1 1 1 1 1 1 1 1 1 0 0 0 0 0 0 0 0 0 1 1 1 1 1 1 1 1 1 1 1 0 0 0 0 0 0 0
0 0 0 0 0 1 1 1 1 1 1 1 1 1 1 1 1 0 0 0 0 0 0 0 0 0 0 0 0 0 0 1 1 1 1 1 1 0 0 0 0 0 0
0 0 0 0 0 0 1 1 1 1 1 1 1 1 1 1 0 0 0 0 0 0 0 0 0 0 0 0 0 0 0 0 0 0 1 1 0 0 0 0 0 0 0
0 0 0 0 0 0 0 0 1 1 1 1 1 1 1 1 0 0 0 0 0 0 0 0 0 0 0 0 0 0 0 0 0 0 0 0 0 0 0 0 0 0 0
0 0 0 0 0 0 0 0 0 0 0 0 0 0 0 0 0 0 0 0 0 0 0 0 0 0 0 0 0 0 0 0 0 0 0 0 0 0 0 0 0 0 0
0 0 0 0 0 0 0 0 0 0 0 0 0 0 0 0 0 0 0 0 0 0 0 0 0 0 0 0 0 0 0 0 0 0 0 0 0 0 0 0 0 0 0
0 0 0 0 0 0 0 0 0 0 0 0 0 0 0 0 0 0 0 0 0 0 0 0 0 0 0 0 0 0 0 0 0 0 0 0 0 0 0 0 0 0 0
0 0 0 0 0 0 0 0 0 0 0 0 0 0 0 0 0 0 0 0 0 0 0 0 0 0 0 0 0 0 0 0 0 0 0 0 0 0 0 0 0 0 0
0 0 0 0 0 0 0 0 0 0 0 0 0 0 0 0 0 0 0 0 0 0 0 0 0 0 0 0 0 0 0 0 0 0 0 0 0 0 0 0 0 0 0
0 0 0 0 0 0 0 0 0 0 0 0 0 0 0 0 0 0 0 0 0 0 0 0 0 0 0 0 0 0 0 0 0 0 0 0 0 0 0 0 0 0 0
0 0 0 0 0 0 0 0 0 0 0 0 0 0 0 0 0 0 0 0 0 0 0 0 0 0 0 0 0 0 0 0 0 0 0 0 0 0 0 0 0 0 0
0 0 0 0 0 0 0 0 0 0 0 0 0 0 0 0 0 0 0 0 0 0 0 0 0 0 0 0 0 0 0 0 0 0 0 0 0 0 0 0 0 0 0
0 0 0 0 0 0 0 0 0 0 0 0 0 0 0 0 0 0 0 0 0 0 0 0 0 0 0 0 0 0 0 0 0 0 0 0 0 0 0 0 0 0 0
0 0 0 0 0 0 0 0 0 0 0 0 0 0 0 0 0 0 0 0 0 0 0 0 0 0 0 0 0 0 0 0 0 0 0 0 0 0 0 0 0 0 0
0 0 0 0 0 0 0 0 0 0 0 0 0 0 0 0 0 0 0 0 0 0 0 0 0 0 0 0 0 0 0 0 0 0 0 0 0 0 0 0 0 0 0
0 0 0 0 0 0 0 0 0 0 0 0 0 0 0 0 0 0 0 0 0 0 0 0 0 0 0 0 0 0 0 0 0 0 0 0 0 0 0 0 0 0 0
0 0 0 0 0 0 0 0 0 0 0 0 0 0 0 0 0 0 0 0 0 0 0 0 0 0 0 0 0 0 0 0 0 0 0 0 0 0 0 0 0 0 0
0 0 0 0 0 0 0 0 0 0 0 0 0 0 0 0 0 0 0 0 0 0 0 0 0 0 0 0 0 0 0 0 0 0 0 0 0 0 0 0 0 0 0
0 0 0 0 0 0 0 0 0 0 0 0 0 0 0 0 0 0 0 0 0 0 0 0 0 0 0 0 0 0 0 0 0 0 0 0 0 0 0 0 0 0 0
0 0 0 0 0 0 0 0 0 0 0 0 0 0 0 0 0 0 0 0 0 0 0 0 0 0 0 0 0 0 0 0 0 0 0 0 0 0 0 0 0 0 0
0 0 0 0 0 0 0 0 0 0 0 0 0 0 0 0 0 0 0 0 0 0 0 0 0 0 0 0 0 0 0 0 0 0 0 0 0 0 0 0 0 0 0
0 0 0 0 0 0 0 0 0 0 0 0 0 0 0 0 0 0 0 0 0 0 0 0 0 0 0 0 0 0 0 0 0 0 0 0 0 0 0 0 0 0 0
Wind_Speed
2 2 2 3 2 3 3 3 3 3 3 4 4 4 5 5 5 5 6 6 7 7 7 8 9 7 6 6 5 6 6 6 8 6 4 4 5 5 5 5 5 6 6
2 2 3 3 3 3 3 3 3 4 4 4 4 5 6 6 6 6 7 7 7 8 8 7 8 6 7 6 5 6 6 6 6 8 5 4 5 5 5 5 5 4 4
2 2 3 4 4 4 4 4 4 4 4 4 4 5 6 6 6 6 6 7 7 8 8 8 7 7 8 6 6 6 5 5 5 6 6 4 3 3 4 4 4 4 4
3 2 3 4 4 4 4 4 4 4 4 5 5 5 5 5 6 6 6 7 7 8 7 7 7 8 8 7 7 7 6 6 5 5 6 4 4 3 3 3 4 3 4
3 3 4 4 4 5 5 5 5 5 5 5 5 6 5 5 5 5 6 7 7 7 7 7 7 8 9 8 7 6 6 6 5 5 5 5 4 3 4 3 4 3 3
3 4 4 4 5 5 5 5 5 5 5 5 5 6 6 6 8 10 9 7 7 7 7 7 7 8 9 11 11 10 8 7 7 6 6 6 6 5 4 4 3 3 4
4 4 5 5 6 6 6 6 5 5 6 5 5 5 6 7 10 11 12 8 7 6 6 6 7 7 8 7 8 8 9 10 10 8 7 7 6 6 5 5 5 4 5
4 5 5 6 6 7 6 6 6 5 5 5 5 5 6 7 10 11 12 7 6 6 6 6 7 7 7 6 5 5 5 6 6 6 6 6 5 4 5 5 4 3 2
4 5 5 6 6 7 7 6 6 6 6 6 5 5 5 6 9 11 10 5 5 6 6 6 6 6 8 7 5 5 5 4 4 5 5 4 4 4 3 2 2 2 2
4 5 5 5 6 7 7 7 6 6 6 5 5 5 5 5 8 10 10 4 5 5 5 5 7 8 8 7 5 5 6 4 2 2 3 3 3 3 3 3 3 3 2
4 5 5 5 6 7 6 5 5 5 6 5 5 4 5 6 7 9 10 5 4 5 5 5 5 9 9 8 7 5 6 4 3 2 2 2 2 1 2 2 1 2 2
4 5 6 5 5 6 5 5 5 5 5 5 5 5 4 4 6 8 9 9 8 5 5 4 4 8 9 9 6 5 5 4 2 2 1 1 1 1 1 1 1 1 1
4 5 5 5 5 5 5 5 5 4 4 4 4 5 4 4 4 8 9 9 10 6 4 7 8 8 7 5 5 6 4 2 2 2 2 2 1 1 1 1 2 2 3
5 5 5 5 5 5 4 4 4 4 4 4 4 5 4 4 4 4 4 4 6 6 4 5 7 6 5 5 5 3 2 2 2 2 1 1 1 1 0 0 0 1 2
4 4 4 4 5 5 4 4 4 4 4 5 4 3 4 5 6 10 8 5 4 4 5 3 2 2 2 2 2 2 1 0 1 1 1 1 1 0 0 1 0 1 1
4 4 3 3 4 4 4 5 6 7 10 10 9 8 6 8 12 12 11 10 10 8 5 3 3 2 2 2 2 2 2 1 0 1 1 1 1 1 1 1 1 1 1
3 4 3 3 4 4 4 4 5 7 8 9 9 10 10 11 12 11 10 10 8 7 3 2 2 2 2 2 2 2 2 1 1 0 1 1 1 1 1 1 1 1 1
3 4 4 3 3 3 4 4 4 5 6 5 7 9 11 11 12 11 10 7 4 3 2 2 2 2 2 2 2 1 1 1 1 0 1 1 1 2 1 1 1 1 1
3 3 3 3 3 3 3 3 4 4 4 5 5 6 9 10 11 10 9 4 3 2 2 2 2 2 2 2 2 2 1 1 1 1 0 1 1 2 1 1 1 2 2
3 6 6 3 3 3 3 3 3 3 4 4 5 5 5 6 5 6 5 4 3 3 3 3 3 2 2 2 2 1 1 1 1 1 1 1 1 1 2 2 2 2 1
2 3 6 4 3 3 3 3 3 3 3 4 4 6 9 5 4 5 4 4 3 3 3 3 3 3 2 2 1 1 1 1 1 1 1 1 1 2 1 2 2 2 2
2 2 2 2 3 3 3 3 3 3 3 4 4 5 9 5 4 4 4 4 4 3 3 2 2 2 2 2 2 1 1 1 0 0 1 1 1 2 2 2 2 2 2
2 2 2 2 2 4 4 3 3 3 3 3 4 4 4 4 4 4 4 4 4 4 3 3 2 2 2 2 2 1 1 1 1 1 1 1 1 2 2 2 3 3 2
2 2 2 2 3 3 3 3 3 3 3 4 4 4 4 4 4 4 4 4 4 4 3 3 3 3 4 3 2 2 2 1 0 1 2 2 2 2 2 3 3 3 3
2 2 2 2 2 3 3 3 3 3 3 4 4 4 4 4 4 4 4 4 4 4 4 4 3 3 4 4 3 3 3 3 2 1 2 2 3 3 3 3 3 3 3
2 2 2 2 2 2 3 3 3 3 3 4 3 3 4 4 4 4 4 4 4 4 4 3 3 4 4 3 3 4 4 4 3 2 2 3 3 3 3 3 4 3 4
Wind_Direction
325 321 320 311 296 283 276 276 280 279 269 262 261 262 266 263 256 253 255 256 257 259 257 252 250 246 245 241 239 235 233 234 255 265 251 247 237 234 238 234 238 232 232
315 320 319 317 310 296 287 282 281 281 276 272 270 268 266 269 265 257 261 262 260 262 260 260 259 255 249 246 242 242 239 235 246 262 262 249 246 238 237 236 240 235 234
328 322 319 317 313 300 294 288 284 280 279 279 281 274 273 271 271 264 260 262 263 264 262 259 260 255 252 250 245 245 247 250 247 253 262 258 257 251 251 254 241 238 240
335 320 313 308 304 299 294 292 290 286 282 280 276 274 274 274 270 271 268 266 267 267 267 266 265 255 250 252 248 243 243 244 247 252 256 258 259 255 244 248 254 238 242
335 325 306 301 299 299 294 292 292 289 288 281 280 276 274 274 274 281 282 274 270 271 271 267 267 267 262 256 256 246 239 240 241 246 250 256 252 242 238 236 250 245 247
327 316 313 307 301 298 293 289 286 286 284 282 282 282 279 283 293 293 292 280 273 272 274 276 274 267 266 261 261 256 248 243 242 239 243 247 251 249 247 242 236 247 254
319 317 319 316 310 300 296 295 289 286 287 282 278 281 280 284 292 293 292 288 277 271 272 276 280 277 274 260 257 257 254 254 248 243 242 244 244 238 235 240 235 236 250
316 316 318 319 315 312 302 294 291 289 289 278 275 276 278 286 296 298 297 287 282 275 273 273 274 277 270 269 254 252 254 254 252 248 245 248 251 245 232 237 240 242 268
312 312 314 316 315 313 306 301 297 294 291 280 277 281 282 287 297 302 304 287 286 285 281 279 277 275 281 285 261 250 255 258 268 270 277 277 268 260 248 216 215 212 256
309 310 313 316 313 308 306 304 303 297 293 289 283 282 283 284 295 302 305 290 288 292 292 284 280 284 285 285 261 245 248 252 259 282 288 303 288 268 262 235 219 226 237
318 319 315 314 313 309 307 308 309 307 305 298 287 285 282 289 297 301 304 298 288 291 293 293 289 294 291 287 279 258 256 262 238 232 244 263 286 284 280 278 260 230 224
328 320 315 314 316 318 315 313 314 314 309 307 304 301 292 295 304 304 306 307 308 293 289 294 298 306 302 296 284 272 273 273 233 219 231 244 262 274 296 344 21 12 332
322 316 315 318 318 318 318 319 318 320 315 312 313 311 314 318 317 319 315 313 314 309 298 303 309 312 313 305 296 291 280 242 215 216 229 239 243 208 158 69 52 51 37
318 316 317 319 322 324 323 321 318 318 316 313 313 313 314 317 320 323 317 316 317 315 311 309 313 314 315 319 321 311 283 231 212 211 205 196 169 150 136 117 77 65 45
318 317 320 323 322 320 320 317 314 308 308 309 308 307 311 313 316 319 321 317 313 304 311 309 307 310 320 324 326 327 321 280 199 169 159 154 150 134 45 28 44 28 70
315 317 319 320 318 317 318 320 320 316 320 321 321 317 314 313 316 318 319 319 320 319 321 318 320 316 314 320 327 332 343 350 174 154 151 155 159 149 92 53 49 62 90
309 311 312 315 314 314 318 320 321 326 327 328 329 330 328 326 326 323 321 324 325 332 332 328 323 319 320 325 328 329 328 337 352 129 152 153 142 130 119 107 87 79 75
307 306 309 305 304 306 311 314 315 319 324 329 331 334 335 337 339 338 336 337 339 346 341 325 320 324 326 323 327 330 332 347 7 61 144 149 141 133 130 129 127 119 111
311 308 305 304 304 305 310 313 315 318 318 321 328 334 338 338 341 343 346 353 343 337 337 335 330 332 335 334 337 337 337 346 0 15 98 124 124 122 125 126 129 124 108
305 312 317 316 314 313 315 317 319 321 322 324 328 332 335 342 344 345 349 348 347 341 337 338 338 337 340 339 339 342 351 0 11 20 45 91 110 126 132 131 132 129 113
308 307 315 318 314 314 313 312 313 316 319 321 324 329 335 339 338 339 341 345 343 337 335 337 337 336 334 335 338 351 360 353 2 16 34 75 107 113 116 121 123 118 113
305 307 315 313 315 316 314 310 310 314 318 319 322 327 332 338 338 338 338 338 337 335 334 336 336 335 335 335 335 339 340 327 330 32 73 84 112 124 124 121 121 121 126
312 314 315 311 311 315 321 321 322 321 320 321 323 327 333 337 337 335 335 338 340 340 342 346 347 349 352 350 341 325 295 264 241 195 150 137 134 137 131 128 132 132 129
309 306 305 311 317 316 316 319 324 327 329 328 328 328 331 332 334 335 338 339 341 342 348 354 356 355 352 353 353 348 340 332 241 162 157 146 128 119 119 121 126 131 127
312 310 309 308 313 317 318 321 326 327 327 326 327 331 333 334 336 338 339 341 346 351 353 353 356 360 359 353 350 349 2 14 25 80 121 123 124 122 121 122 124 122 122
314 312 311 311 311 315 316 319 323 325 325 325 329 330 330 333 336 338 341 345 346 349 351 355 359 356 349 350 354 360 11 27 44 66 101 119 124 126 126 125 125 122 120